Theta_e
333 329 327 322 310 311 304 307 312 311 313 316 318 317 316 318 315 311 334 339 341 343 345 347 346 346 344 342 341 342 343 341 343 342 342 341 341 339 338 338 340 340 339 338 337 336 337 336 335
330 324 324 317 307 300 303 309 309 313 315 318 319 319 317 314 325 329 332 339 342 343 345 346 343 344 341 340 340 341 342 342 342 341 340 340 339 337 337 336 337 338 337 336 336 335 336 336 335
328 321 320 313 304 298 301 308 312 313 319 317 318 322 319 317 327 332 338 341 342 343 345 345 342 342 341 341 341 341 341 342 343 341 339 338 337 337 336 335 335 336 336 336 336 336 336 335 335
327 324 316 309 302 303 304 310 313 315 317 316 319 315 323 329 329 335 340 342 341 343 345 342 343 343 343 342 341 340 341 341 344 342 340 338 337 336 336 334 334 334 335 335 334 335 335 335 335
328 322 311 305 303 306 308 312 316 315 314 316 318 312 317 329 334 338 340 341 341 343 345 344 343 343 343 341 340 340 340 342 342 344 343 341 339 337 336 334 332 333 333 334 334 333 334 334 335
320 320 308 305 304 308 311 313 314 313 313 316 315 315 319 332 334 338 341 341 342 342 344 343 337 339 341 341 341 342 341 338 339 340 343 342 340 338 336 335 333 333 333 332 333 332 332 333 335
314 315 308 305 305 306 309 315 312 311 312 314 318 311 320 328 335 339 340 340 340 340 343 343 342 339 335 337 337 339 338 337 339 338 342 339 338 338 337 336 334 333 333 332 331 330 329 330 329
318 316 307 306 304 305 311 313 313 313 310 318 321 309 313 327 335 338 339 339 340 340 342 342 342 340 339 339 332 334 335 335 335 333 331 331 333 331 333 331 334 333 332 331 330 329 328 327 326
317 308 307 307 305 307 310 310 311 314 312 317 320 318 323 331 335 335 333 334 335 335 337 339 341 340 339 339 333 330 331 331 331 330 326 327 335 334 332 328 331 334 333 332 331 329 328 326 324
311 307 305 313 312 309 311 311 311 312 312 313 318 324 327 331 331 329 328 327 329 331 333 336 337 340 339 336 338 337 334 334 334 335 335 335 334 334 331 325 325 329 328 331 332 331 330 326 326
310 307 309 311 313 312 311 310 313 312 310 314 314 319 325 328 327 328 329 332 331 333 333 334 335 337 339 337 338 337 337 335 334 334 334 334 333 333 332 332 330 331 324 330 329 330 331 330 330
304 309 309 312 313 311 309 312 310 313 314 315 319 321 325 326 327 329 329 331 332 334 334 333 334 335 335 336 336 336 336 336 335 334 333 332 331 332 331 330 330 330 330 329 329 329 330 330 330
306 306 311 311 312 312 311 310 311 311 317 317 317 322 323 325 327 330 332 333 333 332 334 333 333 334 335 335 335 335 334 334 335 335 334 332 330 329 329 328 328 328 328 328 327 327 327 327 326
303 306 307 309 311 311 310 312 311 314 316 314 317 318 322 324 325 328 330 331 332 333 333 335 331 332 333 333 333 333 332 333 333 333 335 334 332 331 329 328 328 327 327 327 327 327 327 327 327
305 300 304 307 308 309 310 307 307 316 314 313 315 318 321 324 326 326 328 328 331 332 334 334 335 335 332 332 333 333 332 333 332 332 331 332 333 332 331 330 330 329 330 328 328 327 327 326 326
301 300 294 302 306 308 309 298 308 314 314 314 315 316 319 322 325 327 328 329 331 331 331 333 333 335 336 334 333 333 334 333 331 331 331 330 329 332 332 331 331 331 331 329 328 327 327 326 326
299 293 294 296 304 305 305 299 305 308 309 312 315 316 317 320 323 326 329 329 330 331 332 331 332 332 334 335 335 335 334 334 333 332 330 329 328 328 332 332 332 332 331 330 329 327 327 326 327
292 292 294 294 297 301 301 301 303 306 306 306 308 312 315 316 318 323 327 329 330 331 331 332 331 331 332 334 335 335 334 334 334 333 331 331 329 328 331 332 332 332 330 330 329 328 329 327 325
295 295 293 296 299 298 298 299 302 306 307 306 307 308 308 310 316 318 320 322 325 329 330 330 330 330 330 329 330 330 328 330 330 331 332 331 330 328 330 331 331 331 329 329 329 328 324 323 324
295 293 293 296 297 296 297 296 300 302 303 305 306 307 308 310 311 312 314 316 316 319 323 326 328 329 329 328 329 329 330 330 331 332 331 331 329 328 332 331 331 329 328 328 326 323 321 320 322
296 292 292 292 295 297 295 293 296 300 302 304 304 306 307 308 309 311 313 315 316 315 316 320 323 326 328 328 328 328 328 327 328 329 330 331 332 332 331 331 331 330 327 327 326 323 319 318 322
291 298 296 294 292 287 295 284 293 294 296 299 302 304 304 306 308 309 311 313 315 316 317 317 319 323 326 327 327 325 324 324 326 328 329 330 330 330 331 330 330 329 327 325 326 325 323 321 318
293 298 296 296 292 292 291 288 290 294 293 296 299 302 305 307 307 308 309 311 312 314 315 316 317 320 324 326 326 326 325 327 328 326 326 327 328 328 328 328 328 327 327 327 326 325 323 322 320
298 296 295 294 293 284 289 288 288 291 293 296 299 300 302 303 305 306 308 309 310 313 314 314 313 315 320 323 324 324 324 325 324 323 323 324 325 325 325 325 326 326 326 325 326 325 323 322 321
297 292 284 282 282 281 287 287 289 294 295 296 298 300 302 303 302 303 304 306 306 308 311 313 313 311 316 321 322 323 324 325 323 324 323 323 324 324 325 325 325 325 325 325 324 323 322 319 317
293 292 283 277 278 281 286 283 288 296 298 298 298 299 300 301 303 303 304 305 307 307 309 311 312 312 314 319 321 323 323 323 323 324 324 324 325 324 319 317 317 316 315 315 317 318 318 318 317
292 288 293 284 279 281 285 289 292 296 296 297 298 298 299 300 302 304 305 306 307 307 308 311 313 314 315 319 321 321 322 322 321 322 322 318 314 311 310 310 310 309 308 308 309 310 310 312 314
295 297 285 287 279 277 282 284 286 290 293 296 297 299 299 300 300 301 304 306 306 307 308 308 311 314 316 317 318 318 318 319 316 312 310 310 309 307 307 306 305 304 303 303 303 303 304 303 306
290 289 290 291 287 280 279 284 291 293 295 294 297 298 299 299 300 301 303 304 304 304 305 307 306 307 309 310 311 310 309 309 308 308 308 307 306 304 303 302 301 300 300 299 299 299 299 299 300
296 292 291 285 283 286 285 285 294 294 294 295 297 298 299 299 301 302 302 303 302 303 303 304 305 305 306 306 306 306 306 306 306 306 305 304 302 301 300 299 298 297 297 297 297 296 297 296 297
Wind_Speed
7 1 2 3 4 2 5 5 0 7 7 2 4 4 2 4 4 5 6 6 15 14 13 14 10 11 11 11 9 9 9 10 11 9 10 11 13 11 10 9 9 9 12 12 12 11 11 11 12
6 2 3 1 3 3 6 5 8 7 4 5 4 4 4 3 3 5 12 7 15 14 13 13 10 11 10 10 9 8 7 11 9 9 9 9 10 9 10 9 7 9 10 10 10 10 9 10 10
1 2 3 2 1 1 3 8 7 6 7 4 3 2 1 3 4 11 6 14 15 13 12 12 11 11 11 10 9 7 8 7 13 11 9 9 9 9 8 9 7 6 8 9 8 8 7 7 8
2 3 3 2 5 3 1 7 6 9 4 3 1 3 3 2 5 6 12 16 14 13 12 13 11 11 10 10 9 7 7 5 10 13 10 9 8 8 8 7 7 5 5 7 7 7 6 6 7
1 1 1 3 4 3 2 4 8 11 4 5 4 3 2 4 4 9 14 15 14 13 12 13 10 11 10 10 10 8 7 6 6 10 13 12 10 8 7 7 6 6 4 5 5 5 5 4 6
1 2 2 3 4 4 3 6 7 7 4 5 4 3 4 6 10 11 13 15 14 12 12 11 10 9 10 10 9 7 7 8 3 5 10 11 10 10 7 6 6 5 5 4 4 4 4 4 5
3 3 2 1 4 4 5 8 7 8 5 6 1 4 5 9 9 12 13 12 11 10 11 11 11 10 7 8 9 7 5 7 5 7 9 10 10 8 7 7 6 5 5 4 4 3 2 3 3
2 2 2 2 5 3 7 9 2 8 5 2 2 4 4 12 12 13 12 12 12 11 12 11 10 10 10 10 7 7 7 7 6 7 6 6 7 7 7 6 5 6 4 4 4 4 3 2 2
2 3 2 3 5 3 7 8 4 1 3 4 5 2 5 12 14 14 12 11 10 9 11 10 10 10 9 9 9 7 6 6 6 7 6 6 5 7 7 2 4 2 7 6 4 3 3 2 2
4 4 3 1 3 3 8 9 9 6 7 6 6 6 6 13 14 15 15 14 13 13 12 11 11 11 10 7 9 9 8 8 8 8 8 6 6 5 5 3 3 2 1 2 5 4 2 5 4
3 8 5 5 4 3 6 7 6 8 8 10 11 10 12 14 15 15 15 16 16 15 12 12 11 12 11 8 6 5 5 5 6 9 8 7 5 5 5 4 5 5 5 6 6 5 6 5 5
6 5 3 1 4 4 4 3 6 12 7 1 6 4 13 16 17 18 17 16 15 15 15 14 12 10 11 8 8 7 6 6 6 7 9 6 5 6 6 5 5 5 4 6 6 5 6 7 8
4 3 5 1 2 4 2 7 7 11 12 2 6 7 12 13 16 16 15 14 14 16 15 14 13 12 11 12 8 9 8 7 7 7 8 7 7 6 6 6 6 6 5 6 6 6 6 7 8
2 4 0 2 4 3 6 5 3 8 7 9 7 10 11 14 15 13 15 16 17 15 15 14 14 13 13 11 12 9 9 9 9 8 8 11 8 7 7 7 7 6 6 6 6 6 6 7 7
2 3 5 7 4 4 4 11 14 10 5 12 12 9 9 12 14 17 15 16 16 14 14 15 16 16 14 14 12 10 8 9 9 10 12 12 10 10 9 7 7 7 6 7 7 7 7 8 8
3 2 8 5 8 3 8 20 14 15 12 13 15 12 9 12 16 14 15 14 14 14 15 15 13 15 16 13 11 9 9 9 9 9 9 12 11 12 10 8 8 7 7 7 7 7 7 8 8
3 9 9 7 9 7 14 15 11 7 10 18 16 12 12 13 13 14 15 15 14 14 14 15 16 16 16 15 12 12 12 10 9 9 9 12 12 12 11 9 9 9 7 7 7 7 8 8 9
9 9 7 10 2 7 13 19 12 5 7 15 15 16 16 15 16 13 15 14 13 14 14 14 13 16 15 12 11 10 9 10 10 10 10 13 11 11 11 10 10 9 8 8 8 9 9 9 9
5 11 9 3 2 5 16 20 20 17 15 15 13 13 16 18 17 15 14 13 13 13 14 15 15 15 12 11 11 11 11 10 10 10 14 14 13 11 12 10 10 9 10 10 9 9 9 7 7
10 9 9 6 2 4 12 18 18 20 19 21 22 21 20 16 14 14 15 14 16 16 16 15 16 16 14 11 11 9 9 10 11 10 13 14 14 12 12 12 10 10 8 10 9 8 4 5 5
14 16 11 9 4 6 11 24 22 17 23 22 20 20 20 20 20 20 20 17 15 16 17 15 16 16 15 16 10 8 6 4 7 10 10 12 14 13 13 12 10 9 8 7 8 7 8 6 4
14 10 10 9 6 8 2 14 16 4 10 12 16 17 20 23 21 20 18 18 18 16 13 14 14 14 14 16 14 16 12 12 11 10 8 8 12 12 12 11 10 9 7 8 7 7 8 8 7
5 8 10 11 11 10 16 11 7 2 10 13 16 20 19 17 17 20 19 14 14 11 12 13 14 13 14 15 16 12 13 9 8 6 8 9 8 9 9 9 8 8 7 8 8 8 9 7 7
10 9 5 3 4 9 16 14 14 14 11 11 13 12 11 11 12 15 13 11 13 12 12 11 13 14 13 14 16 16 16 13 9 9 7 6 5 6 8 8 7 7 7 7 7 8 9 8 7
14 13 4 5 6 10 4 13 22 5 8 11 13 10 6 6 7 9 9 8 10 13 14 12 14 15 14 15 15 16 16 13 12 10 7 7 6 5 7 8 7 6 6 6 5 6 7 7 8
16 16 6 9 7 4 3 14 9 5 11 13 14 15 12 12 10 10 11 10 10 10 11 12 12 13 12 14 15 13 12 8 8 8 6 6 6 6 7 6 5 4 4 4 4 5 5 6 7
10 16 10 2 3 4 8 10 10 11 13 15 13 10 11 10 10 11 10 8 7 7 8 9 9 10 12 12 10 10 10 9 8 8 7 6 7 6 6 5 5 4 3 1 1 3 4 5 6
13 10 6 6 7 10 11 11 12 4 9 14 17 13 9 7 6 7 6 5 5 4 4 5 6 7 7 8 8 8 9 9 8 8 9 9 8 8 7 6 5 5 4 3 2 1 2 4 4
9 6 6 7 10 7 8 9 2 10 11 10 6 7 6 6 5 5 4 4 3 3 4 4 5 5 6 6 7 8 8 9 9 8 9 9 9 8 8 7 6 5 4 3 2 2 3 4 5
20 19 15 9 11 11 14 18 4 1 3 4 7 5 1 3 5 4 4 4 4 6 6 6 6 6 5 6 6 7 8 8 9 9 8 8 8 7 7 7 6 5 5 3 3 3 3 5 6
Wind_Direction
322 174 201 209 225 253 145 151 77 139 170 125 148 218 330 355 339 33 138 124 144 149 142 149 124 119 119 115 127 130 131 124 125 107 98 99 101 102 97 84 82 98 103 97 94 94 92 89 84
324 201 204 115 230 215 150 145 177 146 81 139 152 182 230 76 70 95 140 161 152 148 153 145 125 127 140 139 136 145 148 132 127 119 111 112 107 108 107 102 96 107 106 103 93 94 104 96 93
228 298 242 136 144 206 180 180 162 135 128 161 170 279 41 82 108 150 109 154 153 150 153 133 139 149 150 148 147 160 146 155 142 135 129 126 118 112 113 113 112 107 118 101 94 89 93 116 97
317 175 139 259 110 97 89 168 154 153 181 200 213 183 149 33 134 148 146 154 151 157 152 141 148 151 151 150 152 157 155 170 158 141 139 127 118 119 114 121 119 112 122 124 111 93 89 104 104
331 251 183 114 102 113 161 156 174 171 167 170 190 142 129 137 131 140 153 160 153 162 156 157 149 150 154 156 157 160 178 186 149 162 153 142 140 135 131 131 129 127 116 124 123 105 81 87 129
32 303 237 180 117 118 148 165 171 197 184 148 215 182 112 126 159 150 165 162 159 166 161 156 153 153 157 159 156 165 198 163 164 118 158 149 151 143 142 140 142 137 124 123 123 121 96 78 136
23 341 52 157 135 150 148 164 199 192 197 201 296 201 110 173 159 154 167 162 153 170 168 168 168 164 161 162 160 162 145 149 91 85 141 147 145 148 151 154 152 147 144 143 141 142 128 110 103
355 307 157 179 196 150 147 175 212 210 200 78 227 204 162 173 157 159 164 167 169 176 181 178 175 174 174 170 169 171 165 148 130 104 89 89 147 171 157 157 175 166 171 167 163 162 170 170 157
267 250 226 203 189 136 154 190 165 92 198 201 195 291 93 141 152 155 164 173 182 186 187 184 185 186 182 180 170 178 182 174 158 142 125 152 194 185 170 124 156 185 183 182 192 196 177 170 203
239 254 212 270 227 217 182 208 168 188 197 213 220 170 143 156 168 175 178 181 187 191 195 194 192 194 187 186 180 192 183 199 202 203 195 206 203 207 229 186 190 216 319 215 222 208 206 230 260
176 239 202 195 220 247 196 208 192 203 213 226 219 197 172 174 184 187 195 194 194 194 197 197 197 197 197 192 188 198 194 199 205 210 209 214 214 206 215 219 210 224 204 237 218 219 237 251 262
217 225 230 122 178 173 202 164 210 222 211 146 217 176 170 186 193 194 197 203 198 198 200 199 200 198 199 197 198 202 203 206 207 210 210 212 216 219 228 230 231 233 233 241 239 245 254 257 256
237 212 196 124 193 233 173 217 229 234 234 211 170 168 192 197 201 204 204 203 204 208 205 201 199 199 202 206 207 208 212 204 225 217 212 216 221 224 225 228 230 235 236 238 241 244 249 255 259
13 261 201 185 211 237 240 225 205 236 216 219 214 198 204 205 204 205 207 210 210 210 208 197 203 205 206 210 212 214 217 221 221 225 228 218 227 226 225 228 232 236 235 241 246 253 254 257 260
73 264 253 212 196 228 212 247 231 229 207 219 221 223 214 215 205 212 212 216 213 216 213 210 202 200 205 209 214 217 217 223 223 228 230 233 229 232 235 238 237 238 238 246 246 251 251 259 259
161 254 239 174 191 195 201 249 235 235 222 232 228 225 228 227 225 217 217 218 217 218 211 211 208 210 206 209 212 214 218 215 224 228 228 229 231 236 236 239 239 239 236 237 241 247 252 258 266
194 231 224 269 209 203 208 253 241 244 237 245 240 233 227 235 231 231 228 221 219 220 218 215 209 213 211 213 212 217 221 221 221 218 225 226 226 228 235 237 242 237 239 241 247 253 255 265 268
203 213 220 230 166 236 234 247 250 226 240 246 251 245 245 239 236 232 234 235 229 225 222 218 215 215 209 211 214 221 227 225 221 223 224 225 223 216 230 238 240 237 239 244 241 248 256 259 275
261 221 230 232 225 245 242 252 257 255 246 253 248 247 249 246 251 250 247 234 232 232 230 222 216 212 205 206 206 214 218 220 225 228 226 225 225 214 224 232 237 237 237 239 246 253 260 266 258
221 225 227 266 214 232 278 269 263 260 251 248 250 252 251 249 247 245 244 234 229 227 224 226 223 213 207 205 206 214 212 222 219 219 223 225 226 218 228 226 228 229 238 245 244 233 236 240 240
220 230 226 252 323 239 293 277 257 243 243 245 241 246 252 251 250 247 244 235 230 226 224 222 222 218 211 211 204 209 216 217 211 219 221 219 219 220 224 227 229 228 231 245 241 230 223 252 252
227 216 224 237 261 261 345 283 273 238 241 230 243 240 242 243 241 245 246 242 233 227 219 222 227 222 214 207 207 207 211 219 220 219 214 209 213 218 218 221 221 224 220 235 243 237 234 224 244
219 174 203 223 234 276 241 267 254 246 257 257 240 237 236 240 247 250 247 252 253 242 228 229 227 222 213 207 209 210 219 227 223 210 208 205 198 207 209 212 214 220 225 234 237 241 240 236 242
144 129 105 123 226 250 237 223 252 236 239 247 259 254 252 243 246 249 251 257 252 243 233 224 221 221 211 207 210 212 216 216 211 212 205 189 188 187 201 202 211 219 227 234 242 247 252 252 245
183 175 166 209 207 249 27 209 252 268 255 242 265 261 242 246 260 256 253 245 247 238 231 226 224 226 214 209 210 212 218 216 217 214 207 192 185 190 195 196 203 213 225 234 245 252 257 263 264
197 193 195 215 204 268 159 230 254 261 269 269 258 262 282 272 255 255 256 268 268 247 234 224 215 222 210 209 212 210 213 214 213 205 198 195 192 181 167 177 189 197 213 233 245 258 260 262 268
181 218 213 331 90 269 230 252 265 234 240 247 257 256 258 266 251 235 254 261 255 239 223 219 217 215 207 202 198 196 195 195 187 179 173 166 162 161 165 171 173 168 153 159 253 261 278 286 284
197 166 180 219 226 239 247 263 253 242 226 234 250 253 259 272 265 245 260 265 254 232 202 196 198 193 180 178 182 177 177 180 168 164 168 167 161 161 163 162 157 151 156 158 195 227 284 291 291
189 197 229 214 224 241 268 253 300 256 258 267 270 255 242 275 279 262 258 231 226 232 206 191 179 171 169 172 169 168 166 164 164 171 171 170 162 165 168 165 164 165 167 167 197 231 260 281 285
211 205 192 205 198 238 267 260 104 298 272 264 268 281 291 289 281 241 219 221 213 216 207 210 207 203 194 182 182 181 170 170 175 179 177 168 169 166 164 167 171 172 172 175 214 257 277 290 292